Location: Del Amo
(33.8464°N, 118.2104°W)
Time: 21:06:45
(UTC+00:00)

Courier 1B Rocket - Pass Details

Date: 18 September 2024
Orbit: 920 x 1201 km, 28.3° (Epoch: 13 October)

Event Time Altitude Azimuth Distance (km) Brightness Sun altitude
Rises 04:36:23 0° 265° (W) 3,898 8.9 -32.9°
Reaches altitude 10° 04:40:06 10° 247° (WSW) 2,991 7.9 -33.6°
Enters shadow 04:44:23 18° 211° (SSW) 2,507 7.1 -34.3°
